Rocky Mount, NC

10:06 PM EST on November 20, 2017 (GMT -0500)
Rocky Mount-Wilson Regional

Weather History for KRWI - April, 2013

Change the Weather History Date:

Sunday, April 28, 2013

  Actual Average Record
Temperature  
Mean Temperature 60 °F -  
Max Temperature 69 °F 77 °F 93 °F (1957)
Min Temperature 51 °F 49 °F 34 °F (1976)
Degree Days  
Heating Degree Days 5    
Growing Degree Days 10 (Base 50)    
Moisture  
Dew Point 46 °F    
Average Humidity 63    
Maximum Humidity 93    
Minimum Humidity 39    
Precipitation  
Precipitation 0.04 in - - ()
Sea Level Pressure  
Sea Level Pressure 30.21 in    
Wind  
Wind Speed 2 mph (ESE)    
Max Wind Speed 7 mph    
Max Gust Speed -    
Visibility 10 miles    
Events Rain    
Averages and records for this station are not official NWS values.
T = Trace of Precipitation, MM = Missing Value Source: NWS Daily Summary

Daily Weather History Graph

Daily Weather History Graph

Search for Another Location

Airport or City:

Trip Planner

Search our weather history database for the weather conditions in past years. The results will help you decide how hot, cold, wet, or windy it might be!

Date:

Astronomy

Apr. 28, 2013 Rise Set
Actual Time 6:22 AM EDT 7:56 PM EDT
Civil Twilight 5:55 AM EDT 8:23 PM EDT
Nautical Twilight 5:22 AM EDT 8:56 PM EDT
Astronomical Twilight 4:48 AM EDT 9:30 PM EDT
Moon 11:21 PM EDT (4/28) 8:40 AM EDT (4/28)
Length of Visible Light 14h 28m
Length of Day
13h 33m
Waning Gibbous, 89% of the Moon is Illuminated
Apr 28
Waning Gibbous
May 2
Last Quarter
May 9
New
May 18
First Quarter
May 25
Full

Hourly Weather History & Observations

Time (EDT) Temp. Dew Point Humidity Pressure Visibility Wind Dir Wind Speed Gust Speed Precip Events Conditions
12:53 AM 57.0 °F 43.0 °F 59% 30.31 in 10.0 mi Calm Calm - N/A   Clear
1:53 AM 55.0 °F 44.1 °F 67% 30.29 in 10.0 mi SE 3.5 mph - N/A   Partly Cloudy
2:53 AM 55.0 °F 45.0 °F 69% 30.27 in 10.0 mi Calm Calm - N/A   Mostly Cloudy
3:53 AM 55.0 °F 46.0 °F 72% 30.26 in 10.0 mi Calm Calm - N/A   Overcast
4:53 AM 55.0 °F 46.0 °F 72% 30.25 in 10.0 mi Calm Calm - N/A   Overcast
5:53 AM 52.0 °F 46.0 °F 80% 30.25 in 10.0 mi Calm Calm - N/A   Overcast
6:53 AM 51.1 °F 46.0 °F 83% 30.26 in 10.0 mi Calm Calm - N/A   Mostly Cloudy
7:53 AM 55.0 °F 46.9 °F 74% 30.27 in 10.0 mi Calm Calm - N/A   Clear
9:53 AM 61.0 °F 46.0 °F 58% 30.27 in 10.0 mi Calm Calm - N/A   Clear
10:53 AM 64.0 °F 46.0 °F 52% 30.26 in 10.0 mi SE 4.6 mph - N/A   Mostly Cloudy
11:53 AM 66.0 °F 44.1 °F 45% 30.26 in 10.0 mi Variable 4.6 mph - N/A   Overcast
12:53 PM 69.1 °F 43.0 °F 39% 30.24 in 10.0 mi SSE 6.9 mph - N/A   Mostly Cloudy
1:53 PM 68.0 °F 43.0 °F 40% 30.23 in 10.0 mi Variable 4.6 mph - N/A   Mostly Cloudy
2:53 PM 66.9 °F 42.1 °F 40% 30.20 in 10.0 mi East 3.5 mph - N/A   Mostly Cloudy
3:53 PM 66.9 °F 43.0 °F 42% 30.18 in 10.0 mi Variable 5.8 mph - N/A   Overcast
4:53 PM 66.9 °F 44.1 °F 44% 30.16 in 10.0 mi ENE 4.6 mph - N/A   Partly Cloudy
5:53 PM 64.9 °F 46.0 °F 50% 30.16 in 10.0 mi Variable 3.5 mph - N/A   Overcast
6:53 PM 61.0 °F 48.0 °F 62% 30.14 in 10.0 mi Calm Calm - 0.00 in   Overcast
7:53 PM 61.0 °F 45.0 °F 56% 30.14 in 10.0 mi Variable 3.5 mph - N/A   Overcast
8:53 PM 57.0 °F 48.9 °F 74% 30.14 in 10.0 mi Calm Calm - 0.01 in Rain Light Rain
9:53 PM 57.0 °F 52.0 °F 83% 30.13 in 10.0 mi East 4.6 mph - 0.02 in   Overcast
10:53 PM 57.0 °F 54.0 °F 89% 30.13 in 9.0 mi Calm Calm - 0.01 in Rain Light Rain
11:53 PM 57.0 °F 55.0 °F 93% 30.12 in 9.0 mi Calm Calm - 0.00 in Rain Light Rain